Location: Austin
(30.3000°N, 97.7500°W)
Time: 00:02:11
(UTC-05:00)

ISS - Visible Passes

Search period start: 19 April 2026 00:00
Search period end: 29 April 2026 00:00
Orbit: 416 x 425 km, 51.6° (Epoch: 18 April)

Date Brightness Start Highest point End Pass type
(mag) Time Alt. Az. Time Alt. Az. Time Alt. Az.
19 Apr -2.8 05:24:24 37° NNW 05:24:24 37° NNW 05:27:17 10° NNE visible
20 Apr -1.0 04:39:03 19° NE 04:39:03 19° NE 04:40:09 10° NE visible
21 Apr -1.3 05:26:35 13° NW 05:26:35 13° NW 05:28:18 10° N visible
22 Apr -0.8 04:41:04 13° N 04:41:04 13° N 04:41:44 10° NNE visible
